Home   Weather   Perchtoldsdorf   Past weeks

Flag for Austria Past Weather in Perchtoldsdorf, Lower Austria, Austria — Yesterday and Last 2 Weeks

Now
48 °F

Passing clouds.


Feels Like: 46 °F
Forecast: 37 / 52 °F
Wind: 5 mph from Northwest

Location: Wien / Hohe Warte

Current Time: Mar 1, 2017 at 7:17:08 pm

Latest Report: Mar 1, 2017 at 6:00 pm


Visibility: 34 mi

Pressure: 29.81 "Hg

Humidity: 48%

Dew Point: 29 °F

Location of PerchtoldsdorfLocation

Past Weather in Perchtoldsdorf — Graph

°F

Perchtoldsdorf Temperature Yesterday

Maximum temperature yesterday: 53 °F (at 10:00 pm)
Minimum temperature yesterday: 36 °F (at 8:00 am)
Average temperature yesterday: 45 °F

High & Low Weather Summary for the Past Weeks

 TemperatureHumidityPressure
High66 °F (Feb 23, 3:00 pm)98% (Feb 17, 6:00 am)30.64 "Hg (Feb 17, 6:00 am)
Low27 °F (Feb 15, 7:00 am)28% (Feb 23, 3:00 pm)29.44 "Hg (Feb 28, 9:00 pm)
Average42 °F72%30.06 "Hg
* Reported Feb 14 5:00 pm — Mar 1 5:00 pm, Perchtoldsdorf, Weather by CustomWeather, © 2017

Note: Actual official high and low records may vary slightly from our data, if they occured in-between our weather recording intervals... More about our weather records

Advertising

Perchtoldsdorf Weather History for the Previous 24 Hours

Scroll right to see more
 ConditionsComfort  
Time TempWeatherWind HumidityBarometerVisibility
5:00 pm
Wed, Mar 1
49 °FPartly sunny.6 mph45%29.79 "Hg37 mi
4:00 pm51 °FScattered clouds.7 mph41%29.77 "Hg37 mi
3:00 pm50 °FCool.7 mph43%29.76 "HgN/A
2:00 pm52 °FScattered clouds.7 mph39%29.73 "Hg37 mi
1:00 pm50 °FPartly sunny.9 mph43%29.72 "Hg37 mi
12:00 pm47 °FOvercast.5 mph54%29.74 "Hg37 mi
11:00 am45 °FOvercast.7 mph58%29.73 "Hg37 mi
10:00 am44 °FOvercast.8 mph62%29.72 "Hg37 mi
9:00 am43 °FOvercast.6 mph60%29.72 "Hg37 mi
8:00 am43 °FOvercast.7 mph62%29.70 "Hg37 mi
7:00 am42 °FOvercast.8 mph68%29.67 "Hg16 mi
6:00 am44 °FQuite cool.8 mph67%29.64 "HgN/A
5:00 am44 °FQuite cool.9 mph64%29.62 "HgN/A
4:00 am45 °FQuite cool.8 mph63%29.59 "HgN/A
3:00 am44 °FQuite cool.7 mph68%29.59 "HgN/A
2:00 am43 °FQuite cool.9 mph71%29.59 "HgN/A
1:00 am44 °FQuite cool.8 mph73%29.57 "HgN/A
12:00 am44 °FQuite cool.6 mph80%29.57 "HgN/A
11:00 pm
Tue, Feb 28
46 °FFog.13 mph77%29.54 "HgN/A
10:00 pm53 °FCool.6 mph55%29.44 "HgN/A
9:00 pm52 °FCool.5 mph58%29.44 "HgN/A
8:00 pm51 °FPassing clouds.5 mph59%29.47 "Hg9 mi
7:00 pm47 °FOvercast.1 mph62%29.50 "Hg11 mi
Weather by CustomWeather, © 2017

See weather overviewHow to use our weather pages